Time,TemperatureF,DewpointF,PressureIn,WindDirection,WindDirectionDegrees,WindSpeedMPH,WindSpeedGustMPH,Humidity,HourlyPrecipIn,Conditions,Clouds,dailyrainin,SoftwareType,DateUTC
2013-07-09 00:01:00,75.0,69.2,30.11,SSW,203,2.0,2.0,82,0.00,,,0.00,WUHU216HW,2013-07-09 04:01:00,
2013-07-09 00:06:00,75.0,69.9,30.11,SSW,203,0.0,2.0,84,0.00,,,0.00,WUHU216HW,2013-07-09 04:06:00,
2013-07-09 00:11:00,75.3,70.2,30.11,SSW,203,1.1,1.1,84,0.00,,,0.00,WUHU216HW,2013-07-09 04:11:00,
2013-07-09 00:16:00,75.3,70.2,30.10,South,180,4.9,4.9,84,0.00,,,0.00,WUHU216HW,2013-07-09 04:16:00,
2013-07-09 00:21:00,75.3,70.2,30.10,South,180,1.5,4.9,84,0.00,,,0.00,WUHU216HW,2013-07-09 04:21:00,
2013-07-09 00:26:00,75.3,70.5,30.10,SSW,203,3.3,4.2,85,0.00,,,0.00,WUHU216HW,2013-07-09 04:26:00,
2013-07-09 00:31:00,75.2,70.4,30.10,SW,225,11.1,11.1,85,0.00,,,0.00,WUHU216HW,2013-07-09 04:31:00,
2013-07-09 00:36:00,75.0,70.5,30.10,SSW,203,0.0,11.1,86,0.00,,,0.00,WUHU216HW,2013-07-09 04:36:00,
2013-07-09 00:41:00,75.0,70.2,30.10,SW,225,4.0,8.2,85,0.00,,,0.00,WUHU216HW,2013-07-09 04:41:00,
2013-07-09 00:46:00,74.8,70.0,30.10,SW,225,4.6,4.6,85,0.00,,,0.00,WUHU216HW,2013-07-09 04:46:00,
2013-07-09 00:51:00,74.8,70.0,30.10,SSW,203,2.6,4.6,85,0.00,,,0.00,WUHU216HW,2013-07-09 04:51:00,
2013-07-09 00:56:00,74.6,69.8,30.09,South,180,0.0,3.8,85,0.00,,,0.00,WUHU216HW,2013-07-09 04:56:00,
2013-07-09 01:01:00,74.4,69.3,30.10,SSW,203,1.3,3.5,84,0.00,,,0.00,WUHU216HW,2013-07-09 05:01:00,
2013-07-09 01:06:00,74.4,69.3,30.10,SW,225,5.3,5.3,84,0.00,,,0.00,WUHU216HW,2013-07-09 05:06:00,
2013-07-09 01:11:00,74.3,69.1,30.10,SSW,203,5.8,5.8,84,0.00,,,0.00,WUHU216HW,2013-07-09 05:11:00,
2013-07-09 01:16:00,74.1,69.0,30.10,SSW,203,6.2,6.2,84,0.00,,,0.00,WUHU216HW,2013-07-09 05:16:00,
2013-07-09 01:21:00,73.9,68.8,30.10,SSW,203,4.4,6.2,85,0.00,,,0.00,WUHU216HW,2013-07-09 05:21:00,
2013-07-09 01:26:00,73.9,69.1,30.10,SW,225,3.8,4.4,85,0.00,,,0.00,WUHU216HW,2013-07-09 05:26:00,
2013-07-09 01:31:00,73.9,68.8,30.09,WNW,293,0.0,4.4,84,0.00,,,0.00,WUHU216HW,2013-07-09 05:31:00,
2013-07-09 01:36:00,74.1,69.0,30.10,SSW,203,2.6,3.8,84,0.00,,,0.00,WUHU216HW,2013-07-09 05:36:00,
2013-07-09 01:41:00,74.1,69.0,30.10,SSW,203,2.9,3.3,84,0.00,,,0.00,WUHU216HW,2013-07-09 05:41:00,
2013-07-09 01:46:00,73.9,68.8,30.10,SW,225,0.0,2.9,84,0.00,,,0.00,WUHU216HW,2013-07-09 05:46:00,
2013-07-09 01:51:00,73.9,69.1,30.10,WNW,293,2.2,5.3,85,0.00,,,0.00,WUHU216HW,2013-07-09 05:51:00,
2013-07-09 01:56:00,73.9,69.1,30.11,WNW,293,1.7,5.3,85,0.00,,,0.00,WUHU216HW,2013-07-09 05:56:00,
2013-07-09 02:01:00,73.9,69.1,30.11,SW,225,0.8,3.5,85,0.00,,,0.00,WUHU216HW,2013-07-09 06:01:00,
2013-07-09 02:06:00,73.7,68.9,30.10,SSW,203,2.4,2.4,85,0.00,,,0.00,WUHU216HW,2013-07-09 06:06:00,
2013-07-09 02:11:00,73.7,68.9,30.11,SW,225,0.0,2.4,85,0.00,,,0.00,WUHU216HW,2013-07-09 06:11:00,
2013-07-09 02:16:00,73.7,68.9,30.11,WNW,293,4.0,4.0,85,0.00,,,0.00,WUHU216HW,2013-07-09 06:16:00,
2013-07-09 02:21:00,73.5,68.8,30.11,WSW,248,1.5,4.0,85,0.00,,,0.00,WUHU216HW,2013-07-09 06:21:00,
2013-07-09 02:26:00,73.2,68.4,30.11,SW,225,0.0,2.4,85,0.00,,,0.00,WUHU216HW,2013-07-09 06:26:00,
2013-07-09 02:31:00,73.2,68.4,30.11,SW,225,0.8,2.4,85,0.00,,,0.00,WUHU216HW,2013-07-09 06:31:00,
2013-07-09 02:36:00,73.0,68.2,30.11,West,270,0.0,2.2,85,0.00,,,0.00,WUHU216HW,2013-07-09 06:36:00,
2013-07-09 02:41:00,73.0,68.2,30.11,NW,315,0.0,0.0,85,0.00,,,0.00,WUHU216HW,2013-07-09 06:41:00,
2013-07-09 02:46:00,73.0,68.2,30.11,SW,225,1.1,2.6,85,0.00,,,0.00,WUHU216HW,2013-07-09 06:46:00,
2013-07-09 02:51:00,72.6,68.2,30.12,SW,225,0.0,2.6,86,0.00,,,0.00,WUHU216HW,2013-07-09 06:51:00,
2013-07-09 02:56:00,72.6,68.2,30.11,SW,225,0.6,2.2,86,0.00,,,0.00,WUHU216HW,2013-07-09 06:56:00,
2013-07-09 03:01:00,72.6,68.2,30.11,SW,225,0.0,0.6,86,0.00,,,0.00,WUHU216HW,2013-07-09 07:01:00,
2013-07-09 03:06:00,72.5,68.0,30.11,SW,225,0.0,2.6,86,0.00,,,0.00,WUHU216HW,2013-07-09 07:06:00,
2013-07-09 03:11:00,72.3,68.2,30.11,SSW,203,0.0,2.6,87,0.00,,,0.00,WUHU216HW,2013-07-09 07:11:00,
2013-07-09 03:16:00,72.3,68.2,30.11,SW,225,0.6,0.6,87,0.00,,,0.00,WUHU216HW,2013-07-09 07:16:00,
2013-07-09 03:21:00,72.1,68.0,30.11,SSW,203,2.6,2.6,87,0.00,,,0.00,WUHU216HW,2013-07-09 07:21:00,
2013-07-09 03:49:00,71.7,67.6,30.11,WSW,248,0.0,0.0,87,0.00,,,0.00,WUHU216HW,2013-07-09 07:49:00,
2013-07-09 03:54:00,71.7,67.6,30.11,WSW,248,0.0,0.0,87,0.00,,,0.00,WUHU216HW,2013-07-09 07:54:00,
2013-07-09 03:59:00,71.7,67.6,30.11,West,270,0.0,0.0,87,0.00,,,0.00,WUHU216HW,2013-07-09 07:59:00,
2013-07-09 04:04:00,71.7,67.6,30.11,WNW,293,1.1,1.1,87,0.00,,,0.00,WUHU216HW,2013-07-09 08:04:00,
2013-07-09 04:08:00,71.6,67.5,30.11,WNW,293,0.0,1.1,87,0.00,,,0.00,WUHU216HW,2013-07-09 08:08:00,
2013-07-09 04:13:00,71.4,67.3,30.11,WNW,293,0.0,1.1,87,0.00,,,0.00,WUHU216HW,2013-07-09 08:13:00,
2013-07-09 04:18:00,71.4,67.3,30.11,West,270,0.0,0.0,87,0.00,,,0.00,WUHU216HW,2013-07-09 08:18:00,
2013-07-09 04:23:00,71.4,67.3,30.11,West,270,0.0,0.0,87,0.00,,,0.00,WUHU216HW,2013-07-09 08:23:00,
2013-07-09 04:28:00,71.4,67.3,30.11,West,270,1.3,1.3,87,0.00,,,0.00,WUHU216HW,2013-07-09 08:28:00,
2013-07-09 04:33:00,71.2,67.1,30.11,SW,225,0.0,1.3,87,0.00,,,0.00,WUHU216HW,2013-07-09 08:33:00,
2013-07-09 04:38:00,71.2,67.4,30.11,SW,225,0.0,1.3,88,0.00,,,0.00,WUHU216HW,2013-07-09 08:38:00,
2013-07-09 04:43:00,71.2,67.4,30.11,SW,225,0.0,0.6,88,0.00,,,0.00,WUHU216HW,2013-07-09 08:43:00,
2013-07-09 04:48:00,71.0,67.3,30.11,SW,225,0.0,0.6,88,0.00,,,0.00,WUHU216HW,2013-07-09 08:48:00,
2013-07-09 04:53:00,70.8,67.1,30.11,SW,225,0.0,0.0,88,0.00,,,0.00,WUHU216HW,2013-07-09 08:53:00,
2013-07-09 04:58:00,70.8,67.1,30.11,SW,225,0.0,0.0,88,0.00,,,0.00,WUHU216HW,2013-07-09 08:58:00,
2013-07-09 05:03:00,70.8,67.1,30.11,SW,225,0.0,0.0,88,0.00,,,0.00,WUHU216HW,2013-07-09 09:03:00,
2013-07-09 05:08:00,70.8,67.1,30.11,SW,225,0.0,0.0,88,0.00,,,0.00,WUHU216HW,2013-07-09 09:08:00,
2013-07-09 05:13:00,70.7,66.9,30.11,SW,225,0.0,0.0,88,0.00,,,0.00,WUHU216HW,2013-07-09 09:13:00,
2013-07-09 05:18:00,70.7,66.9,30.11,SW,225,0.0,0.0,88,0.00,,,0.00,WUHU216HW,2013-07-09 09:18:00,
2013-07-09 05:23:00,70.7,66.9,30.11,SW,225,0.0,0.0,88,0.00,,,0.00,WUHU216HW,2013-07-09 09:23:00,
2013-07-09 05:28:00,70.5,66.7,30.11,SW,225,0.0,0.0,88,0.00,,,0.00,WUHU216HW,2013-07-09 09:28:00,
2013-07-09 05:33:00,70.5,66.7,30.11,SW,225,0.0,0.0,88,0.00,,,0.00,WUHU216HW,2013-07-09 09:33:00,
2013-07-09 05:38:00,70.5,66.7,30.11,SW,225,0.0,0.0,88,0.00,,,0.00,WUHU216HW,2013-07-09 09:38:00,
2013-07-09 05:43:00,70.3,66.5,30.11,SW,225,0.0,0.0,88,0.00,,,0.00,WUHU216HW,2013-07-09 09:43:00,
2013-07-09 05:48:00,70.3,66.5,30.11,SW,225,0.0,0.0,88,0.00,,,0.00,WUHU216HW,2013-07-09 09:48:00,
2013-07-09 05:53:00,70.1,66.4,30.11,SW,225,0.0,0.0,88,0.00,,,0.00,WUHU216HW,2013-07-09 09:53:00,
2013-07-09 05:58:00,70.1,66.4,30.11,SW,225,0.0,0.0,88,0.00,,,0.00,WUHU216HW,2013-07-09 09:58:00,
2013-07-09 06:03:00,70.1,66.4,30.11,SW,225,0.0,0.0,88,0.00,,,0.00,WUHU216HW,2013-07-09 10:03:00,
2013-07-09 06:08:00,69.9,66.2,30.11,SW,225,0.0,0.0,88,0.00,,,0.00,WUHU216HW,2013-07-09 10:08:00,
2013-07-09 06:13:00,69.9,66.2,30.11,SW,225,0.0,0.0,88,0.00,,,0.00,WUHU216HW,2013-07-09 10:13:00,
2013-07-09 06:18:00,69.8,66.0,30.11,SW,225,0.0,0.0,88,0.00,,,0.00,WUHU216HW,2013-07-09 10:18:00,
2013-07-09 06:23:00,69.6,65.8,30.11,SW,225,0.0,0.0,88,0.00,,,0.00,WUHU216HW,2013-07-09 10:23:00,
2013-07-09 06:28:00,69.6,65.8,30.11,SW,225,0.0,0.0,88,0.00,,,0.00,WUHU216HW,2013-07-09 10:28:00,
2013-07-09 07:26:00,69.8,66.3,30.11,SW,225,0.0,0.0,89,0.00,,,0.00,WUHU216HW,2013-07-09 11:26:00,
2013-07-09 07:31:00,69.9,66.5,30.11,SW,225,0.0,0.0,89,0.00,,,0.00,WUHU216HW,2013-07-09 11:31:00,
2013-07-09 07:36:00,70.1,66.7,30.11,SW,225,0.0,0.0,89,0.00,,,0.00,WUHU216HW,2013-07-09 11:36:00,
2013-07-09 07:41:00,70.3,67.2,30.11,SW,225,0.0,0.0,90,0.00,,,0.00,WUHU216HW,2013-07-09 11:41:00,
2013-07-09 07:46:00,70.3,66.9,30.10,SW,225,0.0,0.0,89,0.00,,,0.00,WUHU216HW,2013-07-09 11:46:00,
2013-07-09 07:51:00,70.5,67.4,30.11,SW,225,0.0,0.0,90,0.00,,,0.00,WUHU216HW,2013-07-09 11:51:00,
2013-07-09 07:56:00,70.8,67.8,30.11,SW,225,0.0,0.0,90,0.00,,,0.00,WUHU216HW,2013-07-09 11:56:00,
2013-07-09 08:01:00,71.2,68.1,30.11,SW,225,0.0,0.0,90,0.00,,,0.00,WUHU216HW,2013-07-09 12:01:00,
2013-07-09 08:06:00,71.2,68.1,30.11,SW,225,0.0,0.0,90,0.00,,,0.00,WUHU216HW,2013-07-09 12:06:00,
2013-07-09 08:11:00,71.4,68.0,30.11,SW,225,0.0,0.0,89,0.00,,,0.00,WUHU216HW,2013-07-09 12:11:00,
2013-07-09 08:16:00,71.7,68.3,30.11,SW,225,0.0,0.0,89,0.00,,,0.00,WUHU216HW,2013-07-09 12:16:00,
2013-07-09 08:21:00,71.9,68.5,30.11,SW,225,0.0,0.0,89,0.00,,,0.00,WUHU216HW,2013-07-09 12:21:00,
2013-07-09 08:26:00,71.9,68.5,30.11,SW,225,0.0,0.0,89,0.00,,,0.00,WUHU216HW,2013-07-09 12:26:00,
2013-07-09 08:31:00,72.1,68.7,30.12,SW,225,0.0,0.0,89,0.00,,,0.00,WUHU216HW,2013-07-09 12:31:00,
2013-07-09 08:36:00,72.3,68.9,30.12,SW,225,0.0,0.0,89,0.00,,,0.00,WUHU216HW,2013-07-09 12:36:00,
2013-07-09 08:41:00,72.6,69.0,30.12,SW,225,0.0,0.0,89,0.00,,,0.00,WUHU216HW,2013-07-09 12:41:00,
2013-07-09 08:46:00,72.8,69.4,30.12,SW,225,0.0,0.0,89,0.00,,,0.00,WUHU216HW,2013-07-09 12:46:00,
2013-07-09 08:51:00,73.0,69.6,30.12,SW,225,0.0,0.0,89,0.00,,,0.00,WUHU216HW,2013-07-09 12:51:00,
2013-07-09 08:56:00,73.2,69.8,30.12,SW,225,0.0,0.0,89,0.00,,,0.00,WUHU216HW,2013-07-09 12:56:00,
2013-07-09 09:01:00,73.7,70.3,30.12,SW,225,0.0,0.0,89,0.00,,,0.00,WUHU216HW,2013-07-09 13:01:00,
2013-07-09 09:08:00,74.1,70.7,30.11,SW,225,0.0,0.0,89,0.00,,,0.00,WUHU216HW,2013-07-09 13:08:00,
2013-07-09 09:13:00,74.4,70.7,30.12,SW,225,0.0,0.0,88,0.00,,,0.00,WUHU216HW,2013-07-09 13:13:00,
2013-07-09 09:18:00,74.8,70.7,30.12,SW,225,0.0,0.0,87,0.00,,,0.00,WUHU216HW,2013-07-09 13:18:00,
2013-07-09 09:23:00,75.0,70.9,30.12,SSW,203,1.1,3.5,87,0.00,,,0.00,WUHU216HW,2013-07-09 13:23:00,
2013-07-09 09:28:00,75.3,71.2,30.12,SSW,203,0.0,3.5,87,0.00,,,0.00,WUHU216HW,2013-07-09 13:28:00,
2013-07-09 09:33:00,75.5,71.4,30.12,SSW,203,0.0,0.0,87,0.00,,,0.00,WUHU216HW,2013-07-09 13:33:00,
2013-07-09 09:38:00,75.7,71.6,30.12,SSW,203,0.0,2.9,87,0.00,,,0.00,WUHU216HW,2013-07-09 13:38:00,
2013-07-09 09:43:00,76.1,71.9,30.12,SSW,203,0.0,2.9,87,0.00,,,0.00,WUHU216HW,2013-07-09 13:43:00,
2013-07-09 09:48:00,76.6,72.5,30.12,SSW,203,0.0,0.0,87,0.00,,,0.00,WUHU216HW,2013-07-09 13:48:00,
2013-07-09 09:53:00,76.8,72.3,30.11,SSW,203,0.0,0.0,86,0.00,,,0.00,WUHU216HW,2013-07-09 13:53:00,
2013-07-09 09:58:00,77.3,72.8,30.12,SSW,203,0.0,0.8,86,0.00,,,0.00,WUHU216HW,2013-07-09 13:58:00,
2013-07-09 10:03:00,77.5,73.0,30.12,SSW,203,0.8,0.8,86,0.00,,,0.00,WUHU216HW,2013-07-09 14:03:00,
2013-07-09 10:08:00,77.5,73.0,30.12,SSW,203,0.8,0.8,86,0.00,,,0.00,WUHU216HW,2013-07-09 14:08:00,
2013-07-09 10:14:00,78.0,73.2,30.11,SSW,203,0.0,0.0,85,0.00,,,0.00,WUHU216HW,2013-07-09 14:14:00,
2013-07-09 10:19:00,78.4,73.2,30.11,SSW,203,0.0,2.4,84,0.00,,,0.00,WUHU216HW,2013-07-09 14:19:00,
2013-07-09 10:24:00,78.4,73.2,30.11,SSW,203,3.1,3.1,84,0.00,,,0.00,WUHU216HW,2013-07-09 14:24:00,
2013-07-09 10:29:00,78.6,73.4,30.11,South,180,1.5,3.1,84,0.00,,,0.00,WUHU216HW,2013-07-09 14:29:00,
2013-07-09 10:34:00,78.9,73.7,30.11,SSW,203,0.0,2.2,84,0.00,,,0.00,WUHU216HW,2013-07-09 14:34:00,
2013-07-09 10:39:00,78.9,73.7,30.11,SSW,203,1.1,1.5,84,0.00,,,0.00,WUHU216HW,2013-07-09 14:39:00,
2013-07-09 10:44:00,79.5,73.9,30.11,West,270,0.0,1.1,83,0.00,,,0.00,WUHU216HW,2013-07-09 14:44:00,
2013-07-09 10:49:00,80.2,74.2,30.11,SSW,203,0.0,2.9,82,0.00,,,0.00,WUHU216HW,2013-07-09 14:49:00,
2013-07-09 10:54:00,80.6,74.2,30.11,SSW,203,2.9,2.9,81,0.00,,,0.00,WUHU216HW,2013-07-09 14:54:00,
2013-07-09 10:59:00,80.9,74.3,30.11,SSW,203,2.9,4.6,80,0.00,,,0.00,WUHU216HW,2013-07-09 14:59:00,
2013-07-09 11:04:00,81.3,74.2,30.11,SSW,203,5.5,5.5,79,0.00,,,0.00,WUHU216HW,2013-07-09 15:04:00,
2013-07-09 11:09:00,81.6,74.1,30.11,SSW,203,2.6,5.8,78,0.00,,,0.00,WUHU216HW,2013-07-09 15:09:00,
2013-07-09 11:14:00,82.2,74.5,30.10,SSW,203,2.6,5.8,78,0.00,,,0.00,WUHU216HW,2013-07-09 15:14:00,
2013-07-09 11:19:00,82.2,74.3,30.10,SSW,203,0.0,5.1,77,0.00,,,0.00,WUHU216HW,2013-07-09 15:19:00,
2013-07-09 11:24:00,82.5,73.8,30.10,SSW,203,3.1,4.9,75,0.00,,,0.00,WUHU216HW,2013-07-09 15:24:00,
2013-07-09 11:29:00,82.7,74.0,30.10,SSW,203,3.3,4.9,75,0.00,,,0.00,WUHU216HW,2013-07-09 15:29:00,
2013-07-09 11:34:00,82.9,73.7,30.11,SSW,203,2.6,6.9,74,0.00,,,0.00,WUHU216HW,2013-07-09 15:34:00,
2013-07-09 11:39:00,83.1,74.1,30.10,SSW,203,1.5,6.9,74,0.00,,,0.00,WUHU216HW,2013-07-09 15:39:00,
2013-07-09 11:44:00,83.8,74.2,30.10,SSW,203,0.0,2.9,73,0.00,,,0.00,WUHU216HW,2013-07-09 15:44:00,
2013-07-09 11:49:00,84.2,74.1,30.10,SSW,203,3.1,5.8,72,0.00,,,0.00,WUHU216HW,2013-07-09 15:49:00,
2013-07-09 11:54:00,84.7,74.7,30.10,WNW,293,1.7,5.8,72,0.00,,,0.00,WUHU216HW,2013-07-09 15:54:00,
2013-07-09 11:59:00,85.2,75.2,30.10,SSW,203,4.0,4.0,72,0.00,,,0.00,WUHU216HW,2013-07-09 15:59:00,
2013-07-09 12:04:00,85.8,75.0,30.10,SSW,203,2.2,4.0,70,0.00,,,0.00,WUHU216HW,2013-07-09 16:04:00,
2013-07-09 12:09:00,85.8,74.0,30.11,SW,225,2.4,2.4,68,0.00,,,0.00,WUHU216HW,2013-07-09 16:09:00,
2013-07-09 12:14:00,85.6,74.3,30.11,SSW,203,3.1,6.7,69,0.00,,,0.00,WUHU216HW,2013-07-09 16:14:00,
2013-07-09 12:19:00,85.2,74.4,30.11,SW,225,2.9,6.7,70,0.00,,,0.00,WUHU216HW,2013-07-09 16:19:00,
2013-07-09 12:24:00,85.8,75.0,30.10,South,180,0.6,4.2,70,0.00,,,0.00,WUHU216HW,2013-07-09 16:24:00,
2013-07-09 12:29:00,86.0,75.2,30.11,SW,225,1.1,5.3,70,0.00,,,0.00,WUHU216HW,2013-07-09 16:29:00,
2013-07-09 12:34:00,86.1,75.3,30.11,WSW,248,3.8,5.3,70,0.00,,,0.00,WUHU216HW,2013-07-09 16:34:00,
2013-07-09 12:39:00,86.3,75.5,30.11,SSW,203,4.0,4.0,70,0.00,,,0.00,WUHU216HW,2013-07-09 16:39:00,
2013-07-09 12:44:00,86.5,75.2,30.11,SSW,203,3.1,4.0,69,0.00,,,0.00,WUHU216HW,2013-07-09 16:44:00,
2013-07-09 12:49:00,86.0,74.7,30.10,WNW,293,2.9,4.0,69,0.00,,,0.00,WUHU216HW,2013-07-09 16:49:00,
2013-07-09 12:54:00,86.0,75.5,30.11,SW,225,5.8,5.8,71,0.00,,,0.00,WUHU216HW,2013-07-09 16:54:00,
2013-07-09 12:59:00,86.1,75.3,30.11,WSW,248,0.0,5.8,70,0.00,,,0.00,WUHU216HW,2013-07-09 16:59:00,
2013-07-09 13:04:00,86.5,75.6,30.10,SW,225,4.2,5.8,70,0.00,,,0.00,WUHU216HW,2013-07-09 17:04:00,
2013-07-09 13:09:00,86.7,75.3,30.10,NW,315,0.8,5.1,69,0.00,,,0.00,WUHU216HW,2013-07-09 17:09:00,
2013-07-09 13:14:00,86.7,75.8,30.10,SW,225,2.6,2.6,70,0.00,,,0.00,WUHU216HW,2013-07-09 17:14:00,
2013-07-09 13:19:00,87.0,76.1,30.10,SW,225,5.3,5.3,70,0.00,,,0.00,WUHU216HW,2013-07-09 17:19:00,
2013-07-09 13:24:00,87.0,76.1,30.09,SSW,203,0.0,5.3,70,0.00,,,0.00,WUHU216HW,2013-07-09 17:24:00,
2013-07-09 13:29:00,87.4,76.0,30.08,SSW,203,4.4,4.4,69,0.00,,,0.00,WUHU216HW,2013-07-09 17:29:00,
2013-07-09 13:34:00,87.6,76.1,30.08,SSW,203,0.0,4.4,69,0.00,,,0.00,WUHU216HW,2013-07-09 17:34:00,
2013-07-09 13:39:00,88.1,76.7,30.08,SSW,203,4.6,4.6,69,0.00,,,0.00,WUHU216HW,2013-07-09 17:39:00,
2013-07-09 13:44:00,87.9,76.0,30.08,SSW,203,0.0,4.6,68,0.00,,,0.00,WUHU216HW,2013-07-09 17:44:00,
2013-07-09 13:49:00,87.6,75.2,30.09,SW,225,3.3,4.6,67,0.00,,,0.00,WUHU216HW,2013-07-09 17:49:00,
2013-07-09 13:54:00,86.7,75.3,30.08,SW,225,7.6,7.6,69,0.00,,,0.00,WUHU216HW,2013-07-09 17:54:00,
2013-07-09 13:59:00,85.8,75.0,30.09,South,180,2.4,7.6,70,0.00,,,0.00,WUHU216HW,2013-07-09 17:59:00,
2013-07-09 14:04:00,84.9,74.1,30.10,South,180,5.8,7.6,70,0.00,,,0.00,WUHU216HW,2013-07-09 18:04:00,
2013-07-09 14:09:00,82.2,73.0,30.09,SSW,203,9.3,12.0,74,0.00,,,0.00,WUHU216HW,2013-07-09 18:09:00,
2013-07-09 14:14:00,80.9,73.0,30.09,SSW,203,10.5,12.0,77,0.00,,,0.00,WUHU216HW,2013-07-09 18:14:00,
2013-07-09 14:19:00,79.8,72.8,30.09,SSW,203,5.5,10.5,79,0.08,,,0.08,WUHU216HW,2013-07-09 18:19:00,
2013-07-09 14:24:00,78.9,73.0,30.09,SSW,203,4.4,7.6,82,0.12,,,0.12,WUHU216HW,2013-07-09 18:24:00,
2013-07-09 14:29:00,78.6,73.0,30.09,SSW,203,3.5,8.5,83,0.12,,,0.12,WUHU216HW,2013-07-09 18:29:00,
2013-07-09 14:34:00,78.9,73.3,30.09,SSW,203,7.3,9.1,83,0.12,,,0.12,WUHU216HW,2013-07-09 18:34:00,
2013-07-09 14:39:00,78.9,73.3,30.08,SW,225,3.1,9.1,83,0.12,,,0.12,WUHU216HW,2013-07-09 18:39:00,
2013-07-09 14:44:00,78.9,73.0,30.08,South,180,3.8,8.0,82,0.12,,,0.12,WUHU216HW,2013-07-09 18:44:00,
2013-07-09 14:49:00,78.8,72.5,30.08,SSW,203,13.1,13.1,81,0.12,,,0.12,WUHU216HW,2013-07-09 18:49:00,
2013-07-09 14:54:00,78.2,72.3,30.08,SW,225,11.1,13.1,82,0.12,,,0.12,WUHU216HW,2013-07-09 18:54:00,
2013-07-09 14:59:00,78.0,72.1,30.08,SSE,158,5.8,11.1,82,0.12,,,0.12,WUHU216HW,2013-07-09 18:59:00,
2013-07-09 15:04:00,78.0,72.1,30.08,SSE,158,8.0,11.1,82,0.12,,,0.12,WUHU216HW,2013-07-09 19:04:00,
2013-07-09 15:09:00,78.0,71.7,30.08,SSW,203,0.8,9.8,81,0.12,,,0.12,WUHU216HW,2013-07-09 19:09:00,
2013-07-09 15:14:00,78.0,71.7,30.08,South,180,8.0,8.9,81,0.12,,,0.12,WUHU216HW,2013-07-09 19:14:00,
2013-07-09 15:19:00,77.9,71.6,30.09,South,180,8.9,13.4,81,0.04,,,0.12,WUHU216HW,2013-07-09 19:19:00,
2013-07-09 15:24:00,77.7,71.0,30.09,SSW,203,11.1,13.4,80,0.00,,,0.12,WUHU216HW,2013-07-09 19:24:00,
2013-07-09 15:29:00,77.5,70.8,30.09,WSW,248,6.4,12.3,80,0.00,,,0.12,WUHU216HW,2013-07-09 19:29:00,
2013-07-09 15:34:00,77.5,70.4,30.09,South,180,8.9,12.3,79,0.00,,,0.12,WUHU216HW,2013-07-09 19:34:00,
2013-07-09 15:39:00,77.5,70.4,30.09,SSW,203,2.6,11.8,79,0.00,,,0.12,WUHU216HW,2013-07-09 19:39:00,
2013-07-09 15:44:00,77.5,70.1,30.10,SW,225,4.2,10.2,78,0.00,,,0.12,WUHU216HW,2013-07-09 19:44:00,
2013-07-09 15:49:00,77.7,70.2,30.10,SSW,203,7.3,10.2,78,0.00,,,0.12,WUHU216HW,2013-07-09 19:49:00,
2013-07-09 15:54:00,77.9,70.8,30.10,SSW,203,7.8,7.8,79,0.00,,,0.12,WUHU216HW,2013-07-09 19:54:00,
2013-07-09 15:59:00,77.7,70.6,30.10,SSW,203,4.4,7.8,79,0.00,,,0.12,WUHU216HW,2013-07-09 19:59:00,
2013-07-09 16:04:00,77.7,70.2,30.08,SSE,158,1.7,8.7,78,0.00,,,0.12,WUHU216HW,2013-07-09 20:04:00,
2013-07-09 16:09:00,77.5,70.1,30.08,West,270,3.8,8.7,78,0.00,,,0.12,WUHU216HW,2013-07-09 20:09:00,
2013-07-09 16:14:00,77.5,70.1,30.08,South,180,6.4,6.4,78,0.00,,,0.12,WUHU216HW,2013-07-09 20:14:00,
2013-07-09 16:19:00,77.3,69.9,30.08,South,180,0.8,6.4,78,0.00,,,0.12,WUHU216HW,2013-07-09 20:19:00,
2013-07-09 16:24:00,77.3,69.9,30.08,SSW,203,0.8,6.4,78,0.00,,,0.12,WUHU216HW,2013-07-09 20:24:00,
2013-07-09 16:29:00,77.3,70.3,30.08,SSW,203,0.8,2.2,79,0.00,,,0.12,WUHU216HW,2013-07-09 20:29:00,
2013-07-09 16:34:00,77.5,70.4,30.08,SSW,203,9.6,9.6,79,0.00,,,0.12,WUHU216HW,2013-07-09 20:34:00,
2013-07-09 16:39:00,78.0,70.6,30.08,WSW,248,0.0,9.6,79,0.00,,,0.12,WUHU216HW,2013-07-09 20:39:00,
2013-07-09 16:44:00,78.6,71.1,30.08,WSW,248,1.5,9.6,78,0.00,,,0.12,WUHU216HW,2013-07-09 20:44:00,
2013-07-09 16:49:00,79.3,72.1,30.08,SW,225,1.5,6.2,78,0.00,,,0.12,WUHU216HW,2013-07-09 20:49:00,
2013-07-09 16:54:00,79.5,72.0,30.08,SSW,203,0.0,1.5,78,0.00,,,0.12,WUHU216HW,2013-07-09 20:54:00,
2013-07-09 16:59:00,80.0,72.6,30.08,SSW,203,2.2,2.2,78,0.00,,,0.12,WUHU216HW,2013-07-09 20:59:00,
2013-07-09 17:04:00,80.4,72.5,30.07,SSW,203,0.0,7.6,77,0.00,,,0.12,WUHU216HW,2013-07-09 21:04:00,
2013-07-09 17:09:00,80.6,72.7,30.07,SW,225,6.2,7.6,77,0.00,,,0.12,WUHU216HW,2013-07-09 21:09:00,
2013-07-09 17:14:00,80.7,72.9,30.06,SSW,203,1.5,6.2,77,0.00,,,0.12,WUHU216HW,2013-07-09 21:14:00,
2013-07-09 17:19:00,80.6,72.3,30.05,SSW,203,3.8,6.2,76,0.00,,,0.12,WUHU216HW,2013-07-09 21:19:00,
2013-07-09 17:24:00,80.4,72.5,30.05,SSW,203,2.4,6.2,77,0.00,,,0.12,WUHU216HW,2013-07-09 21:24:00,
2013-07-09 17:29:00,80.4,72.5,30.05,SSW,203,0.8,3.8,77,0.00,,,0.12,WUHU216HW,2013-07-09 21:29:00,
2013-07-09 17:34:00,80.2,72.3,30.05,South,180,0.0,5.5,77,0.00,,,0.12,WUHU216HW,2013-07-09 21:34:00,
2013-07-09 17:39:00,80.2,72.3,30.05,South,180,4.0,8.5,77,0.00,,,0.12,WUHU216HW,2013-07-09 21:39:00,
2013-07-09 17:44:00,79.8,72.0,30.05,South,180,2.6,11.8,77,0.00,,,0.12,WUHU216HW,2013-07-09 21:44:00,
2013-07-09 17:49:00,79.7,72.2,30.05,SSW,203,7.3,11.8,78,0.00,,,0.12,WUHU216HW,2013-07-09 21:49:00,
2013-07-09 17:54:00,79.5,72.0,30.04,SSW,203,6.2,7.3,78,0.00,,,0.12,WUHU216HW,2013-07-09 21:54:00,
2013-07-09 17:59:00,79.7,72.2,30.04,SSW,203,0.0,10.2,78,0.00,,,0.12,WUHU216HW,2013-07-09 21:59:00,
2013-07-09 18:04:00,79.8,72.4,30.04,SSW,203,6.0,10.2,78,0.00,,,0.12,WUHU216HW,2013-07-09 22:04:00,
2013-07-09 18:09:00,79.8,72.4,30.04,SSW,203,0.8,6.0,78,0.00,,,0.12,WUHU216HW,2013-07-09 22:09:00,
2013-07-09 18:14:00,80.2,72.7,30.04,SSW,203,4.6,6.0,78,0.00,,,0.12,WUHU216HW,2013-07-09 22:14:00,
2013-07-09 18:19:00,80.2,72.3,30.04,SSW,203,6.2,6.2,77,0.00,,,0.12,WUHU216HW,2013-07-09 22:19:00,
2013-07-09 18:24:00,80.2,72.7,30.04,SW,225,8.9,8.9,78,0.00,,,0.12,WUHU216HW,2013-07-09 22:24:00,
2013-07-09 18:29:00,80.2,72.7,30.03,South,180,0.8,8.9,78,0.00,,,0.12,WUHU216HW,2013-07-09 22:29:00,
2013-07-09 18:34:00,80.4,72.9,30.02,South,180,0.0,8.9,78,0.00,,,0.12,WUHU216HW,2013-07-09 22:34:00,
2013-07-09 18:39:00,81.3,73.4,30.02,SSW,203,2.4,2.4,77,0.00,,,0.12,WUHU216HW,2013-07-09 22:39:00,
2013-07-09 18:44:00,82.0,73.3,30.02,South,180,0.0,2.4,75,0.00,,,0.12,WUHU216HW,2013-07-09 22:44:00,
2013-07-09 18:49:00,82.4,73.2,30.02,SSW,203,6.4,6.4,74,0.00,,,0.12,WUHU216HW,2013-07-09 22:49:00,
2013-07-09 18:54:00,82.9,73.3,30.02,South,180,1.3,6.4,73,0.00,,,0.12,WUHU216HW,2013-07-09 22:54:00,
2013-07-09 18:59:00,82.9,73.3,30.03,SSW,203,1.1,8.7,73,0.00,,,0.12,WUHU216HW,2013-07-09 22:59:00,
2013-07-09 19:04:00,82.9,72.9,30.03,SSW,203,2.4,8.7,72,0.00,,,0.12,WUHU216HW,2013-07-09 23:04:00,
2013-07-09 19:09:00,83.1,73.1,30.03,South,180,0.8,5.1,72,0.00,,,0.12,WUHU216HW,2013-07-09 23:09:00,
2013-07-09 19:14:00,83.3,73.3,30.03,South,180,0.0,3.3,72,0.00,,,0.12,WUHU216HW,2013-07-09 23:14:00,
2013-07-09 19:19:00,83.4,73.7,30.03,South,180,0.6,2.2,73,0.00,,,0.12,WUHU216HW,2013-07-09 23:19:00,
2013-07-09 19:24:00,84.0,74.4,30.03,SSW,203,2.9,2.9,73,0.00,,,0.12,WUHU216HW,2013-07-09 23:24:00,
2013-07-09 19:29:00,83.8,74.2,30.03,SSW,203,1.7,2.9,73,0.00,,,0.12,WUHU216HW,2013-07-09 23:29:00,
2013-07-09 19:34:00,83.4,73.8,30.03,SSW,203,5.3,5.3,73,0.00,,,0.12,WUHU216HW,2013-07-09 23:34:00,
2013-07-09 19:39:00,83.3,73.7,30.03,SW,225,4.0,5.3,73,0.00,,,0.12,WUHU216HW,2013-07-09 23:39:00,
2013-07-09 19:44:00,82.9,73.7,30.03,SW,225,4.9,4.9,74,0.00,,,0.12,WUHU216HW,2013-07-09 23:44:00,
2013-07-09 19:49:00,82.9,73.7,30.03,SSW,203,0.0,4.9,74,0.00,,,0.12,WUHU216HW,2013-07-09 23:49:00,
2013-07-09 19:54:00,82.7,73.5,30.03,SSW,203,2.9,4.9,74,0.00,,,0.12,WUHU216HW,2013-07-09 23:54:00,
2013-07-09 19:59:00,82.7,74.0,30.03,SSW,203,0.8,2.9,75,0.00,,,0.12,WUHU216HW,2013-07-09 23:59:00,
2013-07-09 20:04:00,82.9,74.1,30.03,SSW,203,0.6,0.8,75,0.00,,,0.12,WUHU216HW,2013-07-10 00:04:00,
2013-07-09 20:09:00,83.1,74.3,30.02,SSW,203,4.4,4.4,75,0.00,,,0.12,WUHU216HW,2013-07-10 00:09:00,
2013-07-09 20:14:00,82.9,74.1,30.02,SSW,203,0.0,4.4,75,0.00,,,0.12,WUHU216HW,2013-07-10 00:14:00,
2013-07-09 20:19:00,82.5,73.8,30.02,SSW,203,0.8,2.9,75,0.00,,,0.12,WUHU216HW,2013-07-10 00:19:00,
2013-07-09 20:24:00,82.4,74.0,30.02,South,180,0.0,0.8,76,0.00,,,0.12,WUHU216HW,2013-07-10 00:24:00,
2013-07-09 20:29:00,82.2,74.3,30.02,South,180,3.5,3.5,77,0.00,,,0.12,WUHU216HW,2013-07-10 00:29:00,
2013-07-09 20:34:00,82.2,74.3,30.02,SSE,158,0.0,3.5,77,0.00,,,0.12,WUHU216HW,2013-07-10 00:34:00,
2013-07-09 20:39:00,82.0,74.1,30.02,SSW,203,0.0,3.5,77,0.00,,,0.12,WUHU216HW,2013-07-10 00:39:00,
2013-07-09 20:44:00,82.0,74.5,30.02,SSW,203,0.8,0.8,78,0.00,,,0.12,WUHU216HW,2013-07-10 00:44:00,
2013-07-09 20:49:00,82.0,74.5,30.02,SSW,203,0.0,0.8,78,0.00,,,0.12,WUHU216HW,2013-07-10 00:49:00,
2013-07-09 20:54:00,82.0,74.5,30.01,SSW,203,0.0,0.8,78,0.00,,,0.12,WUHU216HW,2013-07-10 00:54:00,
2013-07-09 20:59:00,81.6,74.1,30.02,SSW,203,0.0,0.0,78,0.00,,,0.12,WUHU216HW,2013-07-10 00:59:00,
2013-07-09 21:04:00,81.6,74.1,30.02,South,180,0.0,0.0,78,0.00,,,0.12,WUHU216HW,2013-07-10 01:04:00,
2013-07-09 21:09:00,81.3,74.2,30.02,South,180,0.0,0.0,79,0.00,,,0.12,WUHU216HW,2013-07-10 01:09:00,
2013-07-09 21:14:00,81.3,74.2,30.02,South,180,0.0,0.0,79,0.00,,,0.12,WUHU216HW,2013-07-10 01:14:00,
2013-07-09 21:19:00,81.1,74.0,30.02,South,180,0.0,0.0,80,0.00,,,0.12,WUHU216HW,2013-07-10 01:19:00,
2013-07-09 21:24:00,80.9,74.3,30.02,South,180,0.0,0.0,80,0.00,,,0.12,WUHU216HW,2013-07-10 01:24:00,
2013-07-09 21:29:00,80.7,74.1,30.02,South,180,0.0,0.0,80,0.00,,,0.12,WUHU216HW,2013-07-10 01:29:00,
2013-07-09 21:34:00,80.4,73.7,30.02,South,180,0.0,0.0,80,0.00,,,0.12,WUHU216HW,2013-07-10 01:34:00,
2013-07-09 21:39:00,80.4,74.1,30.02,South,180,0.0,0.0,81,0.00,,,0.12,WUHU216HW,2013-07-10 01:39:00,
2013-07-09 21:44:00,80.2,73.9,30.02,SSW,203,0.0,0.0,81,0.00,,,0.12,WUHU216HW,2013-07-10 01:44:00,
2013-07-09 21:49:00,79.8,73.9,30.02,South,180,0.0,0.0,82,0.00,,,0.12,WUHU216HW,2013-07-10 01:49:00,
2013-07-09 21:54:00,79.7,73.7,30.02,SSW,203,0.0,0.0,82,0.00,,,0.12,WUHU216HW,2013-07-10 01:54:00,
2013-07-09 21:59:00,79.5,73.5,30.02,South,180,0.0,0.0,82,0.00,,,0.12,WUHU216HW,2013-07-10 01:59:00,
2013-07-09 22:04:00,79.3,73.7,30.02,SSW,203,0.0,0.0,83,0.00,,,0.12,WUHU216HW,2013-07-10 02:04:00,
2013-07-09 22:09:00,79.3,73.7,30.01,South,180,0.0,0.0,83,0.00,,,0.12,WUHU216HW,2013-07-10 02:09:00,
2013-07-09 22:14:00,79.1,73.5,30.01,South,180,0.0,0.0,83,0.00,,,0.12,WUHU216HW,2013-07-10 02:14:00,
2013-07-09 22:20:00,78.9,73.3,30.01,SSW,203,0.0,0.0,83,0.00,,,0.12,WUHU216HW,2013-07-10 02:20:00,
2013-07-09 22:24:00,78.9,73.7,30.02,South,180,0.0,3.8,84,0.00,,,0.12,WUHU216HW,2013-07-10 02:24:00,
2013-07-09 22:30:00,78.9,73.7,30.02,SSW,203,2.2,3.8,84,0.00,,,0.12,WUHU216HW,2013-07-10 02:30:00,
2013-07-09 22:35:00,78.9,73.7,30.02,SW,225,6.0,6.0,84,0.00,,,0.12,WUHU216HW,2013-07-10 02:35:00,
2013-07-09 22:40:00,79.1,73.9,30.02,South,180,2.9,6.0,84,0.00,,,0.12,WUHU216HW,2013-07-10 02:40:00,
2013-07-09 22:45:00,79.5,73.9,30.02,SSW,203,5.3,6.7,83,0.00,,,0.12,WUHU216HW,2013-07-10 02:45:00,
2013-07-09 22:50:00,79.8,73.9,30.02,SSW,203,2.2,6.7,82,0.00,,,0.12,WUHU216HW,2013-07-10 02:50:00,
2013-07-09 22:55:00,80.2,74.2,30.02,SSW,203,4.9,8.9,82,0.00,,,0.12,WUHU216HW,2013-07-10 02:55:00,
2013-07-09 23:00:00,80.4,74.1,30.02,SSW,203,4.4,8.9,81,0.00,,,0.12,WUHU216HW,2013-07-10 03:00:00,
2013-07-09 23:05:00,80.7,74.4,30.02,SSW,203,8.2,8.2,81,0.00,,,0.12,WUHU216HW,2013-07-10 03:05:00,
2013-07-09 23:10:00,80.7,74.4,30.02,SSE,158,5.1,8.2,81,0.00,,,0.12,WUHU216HW,2013-07-10 03:10:00,
2013-07-09 23:15:00,80.9,74.6,30.02,SSW,203,5.3,8.2,81,0.00,,,0.12,WUHU216HW,2013-07-10 03:15:00,
2013-07-09 23:20:00,80.9,74.6,30.02,South,180,4.2,5.3,81,0.00,,,0.12,WUHU216HW,2013-07-10 03:20:00,
2013-07-09 23:25:00,80.9,74.6,30.02,SSW,203,0.0,5.3,81,0.00,,,0.12,WUHU216HW,2013-07-10 03:25:00,
2013-07-09 23:30:00,80.7,74.4,30.02,SSW,203,1.3,3.1,81,0.00,,,0.12,WUHU216HW,2013-07-10 03:30:00,
2013-07-09 23:35:00,80.7,74.4,30.02,SW,225,10.2,10.2,81,0.00,,,0.12,WUHU216HW,2013-07-10 03:35:00,
2013-07-09 23:40:00,80.7,74.4,30.02,SSW,203,3.1,10.2,81,0.00,,,0.12,WUHU216HW,2013-07-10 03:40:00,
2013-07-09 23:45:00,80.6,74.6,30.02,SSW,203,0.6,7.3,82,0.00,,,0.12,WUHU216HW,2013-07-10 03:45:00,
2013-07-09 23:50:00,80.6,74.6,30.02,SW,225,7.6,7.6,82,0.00,,,0.12,WUHU216HW,2013-07-10 03:50:00,
2013-07-09 23:55:00,80.4,74.4,30.02,SSW,203,0.0,7.6,82,0.00,,,0.12,WUHU216HW,2013-07-10 03:55:00,